TSIOLKOVSKY-RYAZAN 2 (*) (53313 NORAD) Tracking and Keplerian Element Data

This shows tracking and keplerian element data for the satellite.

Feedback or suggestion? Click here.




ElementValue
Catalog53313
NameTSIOLKOVSKY-RYAZAN 2 (*)
Epoch Orbit1913
Epoch Day325.13704948
Epoch Year2022
RAAN273.3552
Inclination51.6371
Eccentricity0.0008468
Argument of Perigee109.5741
Mean Anonmoly250.617
Mean Motion15.66541544
Decay Rate0.00116678
L11 53313U 98067TY 22325.13704948 .00116678 00000+0 10828-2 0 9994
L22 53313 51.6371 273.3552 0008468 109.5741 250.6170 15.66541544 19136



Live tracking and technical data element details for TSIOLKOVSKY-RYAZAN 2 (*) (NORAD 53313). TSIOLKOVSKY-RYAZAN 2 (*) can be tracked NOW for your location showing map with azimuth and elevation plus other details from your city location.







IsCatalogInMostPopularTable: catalog: 53313, numindb: 7
Update: records affected: 1



GetName: 53313 TSIOLKOVSKY-RYAZAN 2 (*)

Hit Count: updated at: Tue, 29 Nov 2022 00:20:21 GMT